NSZ3629 LFMT-EKCH

Flight info

Callsign NSZ3629
Flight time N/A
Altitude 34000
Route ETREK DCT LUXAN DCT LTP DCT SOPLO DCT OMASI DCT KINNI DCT GILIR DCT PENDU DCT UZCUX/N0444F360 DCT SOSAD DCT OBOKA/N0443F350 DCT NIE DCT PIBUL P605 GESKA Z711 MONAK
Aircraft B738/M-SDE2E3FGHIRWXY/LB1

Departure

Time 2026-04-15 09:24
Airport Montpellier-Méditerranée Airport (LFMT)

Arrival

Time N/A
Airport Copenhagen Kastrup Airport (EKCH)
Time Latitude Longitude Altitude Speed Heading
2026-04-15 08:57 43.58016 3.95857 21 ft 0 kts 216°
2026-04-15 09:15 43.58036 3.95875 22 ft 4 kts 204°
2026-04-15 09:15 43.58061 3.95885 25 ft 4 kts 183°
2026-04-15 09:15 43.58073 3.95885 26 ft 2 kts 175°
2026-04-15 09:17 43.58072 3.95885 26 ft 1 kts 175°
2026-04-15 09:17 43.58055 3.95902 23 ft 6 kts 124°
2026-04-15 09:18 43.58039 3.95976 22 ft 9 kts 112°
2026-04-15 09:18 43.58000 3.96065 23 ft 14 kts 125°
2026-04-15 09:18 43.57979 3.96187 21 ft 14 kts 58°
2026-04-15 09:18 43.58030 3.96272 21 ft 11 kts 68°
2026-04-15 09:19 43.58010 3.96367 21 ft 11 kts 125°
2026-04-15 09:19 43.57965 3.96452 21 ft 13 kts 126°
2026-04-15 09:19 43.57902 3.96579 20 ft 18 kts 123°
2026-04-15 09:19 43.57829 3.96727 20 ft 18 kts 124°
2026-04-15 09:20 43.57758 3.96870 19 ft 18 kts 125°
2026-04-15 09:20 43.57689 3.97007 18 ft 17 kts 125°
2026-04-15 09:20 43.57622 3.97139 18 ft 16 kts 125°
2026-04-15 09:20 43.57558 3.97267 17 ft 16 kts 124°
2026-04-15 09:21 43.57497 3.97387 17 ft 15 kts 125°
2026-04-15 09:21 43.57437 3.97504 17 ft 15 kts 125°
2026-04-15 09:21 43.57380 3.97617 17 ft 14 kts 124°
2026-04-15 09:21 43.57326 3.97724 16 ft 13 kts 124°
2026-04-15 09:22 43.57274 3.97828 16 ft 13 kts 124°
2026-04-15 09:22 43.57224 3.97928 16 ft 13 kts 124°
2026-04-15 09:22 43.57182 3.98030 16 ft 12 kts 105°
2026-04-15 09:22 43.57198 3.98120 17 ft 9 kts 50°
2026-04-15 09:23 43.57248 3.98173 15 ft 8 kts 32°
2026-04-15 09:23 43.57299 3.98175 16 ft 7 kts 322°
2026-04-15 09:23 43.57371 3.98037 17 ft 46 kts 305°
2026-04-15 09:23 43.57689 3.97404 19 ft 115 kts 304°
2026-04-15 09:24 43.58259 3.96267 90 ft 166 kts 306°
2026-04-15 09:24 43.58932 3.94945 836 ft 168 kts 310°
2026-04-15 09:24 43.59910 3.94119 1610 ft 172 kts 351°
2026-04-15 09:24 43.61071 3.94415 2450 ft 170 kts 25°
2026-04-15 09:25 43.61725 3.95005 3026 ft 170 kts 41°
2026-04-15 09:25 43.62493 3.96276 3756 ft 181 kts 52°
2026-04-15 09:25 43.63280 3.97814 4004 ft 208 kts 48°
2026-04-15 09:25 43.64525 3.98955 4243 ft 226 kts 21°
2026-04-15 09:26 43.66042 3.99812 4517 ft 248 kts 22°
2026-04-15 09:26 43.67661 4.00786 5094 ft 258 kts 23°
2026-04-15 09:26 43.69313 4.01806 5855 ft 263 kts 23°
2026-04-15 09:26 43.70997 4.02861 6616 ft 269 kts 24°
2026-04-15 09:27 43.72721 4.03950 7393 ft 273 kts 24°
2026-04-15 09:27 43.74452 4.05051 8207 ft 275 kts 24°
2026-04-15 09:27 43.76205 4.06171 8991 ft 278 kts 24°
2026-04-15 09:27 43.77950 4.07289 9769 ft 281 kts 24°
2026-04-15 09:28 43.79736 4.08434 10475 ft 287 kts 24°
2026-04-15 09:28 43.81621 4.09644 10696 ft 310 kts 24°
2026-04-15 09:28 43.83652 4.10950 10897 ft 332 kts 24°
2026-04-15 09:28 43.85794 4.12331 11338 ft 344 kts 24°
2026-04-15 09:29 43.87977 4.13737 12031 ft 347 kts 24°
2026-04-15 09:29 43.90168 4.15152 12793 ft 348 kts 24°
2026-04-15 09:29 43.92376 4.16577 13507 ft 351 kts 24°
2026-04-15 09:29 43.94604 4.18016 14198 ft 354 kts 24°
2026-04-15 09:30 43.96841 4.19468 14839 ft 357 kts 25°
2026-04-15 09:30 43.99068 4.20916 15533 ft 358 kts 25°
2026-04-15 09:30 44.01327 4.22385 16168 ft 361 kts 25°
2026-04-15 09:30 44.03612 4.23874 16770 ft 364 kts 25°
2026-04-15 09:31 44.05929 4.25382 17401 ft 367 kts 25°
2026-04-15 09:31 44.08244 4.26891 18014 ft 369 kts 25°
2026-04-15 09:31 44.10583 4.28417 18587 ft 373 kts 25°
2026-04-15 09:31 44.12937 4.29954 19123 ft 375 kts 25°
2026-04-15 09:32 44.15303 4.31500 19658 ft 377 kts 24°
2026-04-15 09:32 44.17689 4.33060 20139 ft 381 kts 24°
2026-04-15 09:32 44.20094 4.34635 20659 ft 383 kts 24°
2026-04-15 09:32 44.22482 4.36199 21189 ft 385 kts 24°
2026-04-15 09:33 44.24911 4.37792 21690 ft 387 kts 24°
2026-04-15 09:33 44.27360 4.39400 22167 ft 390 kts 24°
2026-04-15 09:33 44.29814 4.41013 22647 ft 392 kts 24°
2026-04-15 09:33 44.32292 4.42643 23121 ft 394 kts 24°
2026-04-15 09:34 44.34785 4.44284 23576 ft 397 kts 24°
2026-04-15 09:34 44.37298 4.45941 23950 ft 400 kts 24°
2026-04-15 09:34 44.39815 4.47602 24352 ft 401 kts 24°
2026-04-15 09:34 44.42345 4.49272 24709 ft 404 kts 24°
2026-04-15 09:35 44.44897 4.50958 25099 ft 406 kts 24°
2026-04-15 09:35 44.47458 4.52653 25453 ft 408 kts 24°
2026-04-15 09:35 44.50028 4.54355 25822 ft 409 kts 24°
2026-04-15 09:35 44.52580 4.56047 26192 ft 411 kts 24°
2026-04-15 09:36 44.55183 4.57774 26497 ft 414 kts 24°
2026-04-15 09:36 44.57789 4.59506 26923 ft 414 kts 24°
2026-04-15 09:36 44.60400 4.61241 27291 ft 415 kts 24°
2026-04-15 09:36 44.63017 4.62983 27605 ft 417 kts 24°
2026-04-15 09:37 44.65650 4.64735 27883 ft 420 kts 23°
2026-04-15 09:37 44.68298 4.66500 28186 ft 422 kts 23°
2026-04-15 09:37 44.70933 4.68259 28510 ft 423 kts 23°
2026-04-15 09:37 44.73604 4.70043 28815 ft 425 kts 23°
2026-04-15 09:38 44.76277 4.71831 29115 ft 427 kts 23°
2026-04-15 09:38 44.78964 4.73630 29398 ft 429 kts 23°
2026-04-15 09:38 44.81668 4.75443 29699 ft 430 kts 23°
2026-04-15 09:38 44.84365 4.77253 30104 ft 428 kts 23°
2026-04-15 09:39 44.87048 4.79057 30507 ft 426 kts 23°
2026-04-15 09:39 44.89716 4.80851 30904 ft 424 kts 23°
2026-04-15 09:39 44.92383 4.82647 31172 ft 424 kts 23°
2026-04-15 09:39 44.95021 4.84423 31403 ft 425 kts 23°
2026-04-15 09:40 44.97691 4.86224 31741 ft 424 kts 23°
2026-04-15 09:40 45.00348 4.88019 32126 ft 421 kts 23°
2026-04-15 09:40 45.02985 4.89802 32464 ft 420 kts 23°
2026-04-15 09:40 45.05618 4.91583 32773 ft 419 kts 23°
2026-04-15 09:41 45.08253 4.93366 33063 ft 419 kts 23°
2026-04-15 09:41 45.10883 4.95149 33347 ft 419 kts 22°
2026-04-15 09:41 45.13513 4.96934 33618 ft 418 kts 22°
2026-04-15 09:41 45.16137 4.98716 33928 ft 417 kts 22°
2026-04-15 09:42 45.18715 5.00470 34255 ft 415 kts 22°
2026-04-15 09:42 45.21302 5.02231 34704 ft 409 kts 23°
2026-04-15 09:42 45.23851 5.03969 35078 ft 405 kts 23°
2026-04-15 09:42 45.26398 5.05706 35306 ft 405 kts 23°
2026-04-15 09:43 45.28946 5.07445 35440 ft 407 kts 23°
2026-04-15 09:43 45.31507 5.09194 35539 ft 410 kts 23°
2026-04-15 09:43 45.34062 5.10998 35722 ft 411 kts 28°
2026-04-15 09:43 45.36381 5.13411 35944 ft 415 kts 39°
2026-04-15 09:44 45.38397 5.16370 36191 ft 417 kts 46°
2026-04-15 09:44 45.40040 5.19753 36197 ft 427 kts 57°
2026-04-15 09:44 45.42905 5.27152 36195 ft 422 kts 46°
2026-04-15 09:45 45.45016 5.29932 36225 ft 410 kts 30°
2026-04-15 09:45 45.47530 5.31816 36205 ft 405 kts 18°
2026-04-15 09:45 45.52936 5.33932 36210 ft 403 kts 12°
2026-04-15 09:46 45.58388 5.35853 36214 ft 404 kts 12°
2026-04-15 09:46 45.63855 5.37823 36209 ft 405 kts 13°
2026-04-15 09:47 45.69290 5.39821 36225 ft 408 kts 13°
2026-04-15 09:47 45.74819 5.41874 36474 ft 411 kts 13°
2026-04-15 09:48 45.77581 5.42903 36719 ft 409 kts 13°
2026-04-15 09:48 45.80341 5.43933 36956 ft 407 kts 13°
2026-04-15 09:48 45.83087 5.44958 37120 ft 407 kts 13°
2026-04-15 09:48 45.85789 5.45968 37218 ft 407 kts 13°
2026-04-15 09:49 45.91298 5.48029 37209 ft 411 kts 13°
2026-04-15 09:49 45.96817 5.50099 37223 ft 409 kts 13°
2026-04-15 09:50 46.02323 5.52167 37214 ft 409 kts 13°
2026-04-15 09:50 46.07835 5.54241 37209 ft 409 kts 13°
2026-04-15 09:51 46.13349 5.56320 37205 ft 409 kts 13°
2026-04-15 09:51 46.18852 5.58400 37222 ft 409 kts 13°
2026-04-15 09:52 46.24350 5.60482 37206 ft 408 kts 13°
2026-04-15 09:52 46.29836 5.62565 37194 ft 407 kts 13°
2026-04-15 09:53 46.35319 5.64651 37197 ft 406 kts 13°
2026-04-15 09:53 46.40746 5.66719 37196 ft 406 kts 13°
2026-04-15 09:54 46.46206 5.68805 37206 ft 405 kts 13°
2026-04-15 09:54 46.51671 5.70896 37199 ft 406 kts 13°
2026-04-15 09:55 46.57143 5.72994 37199 ft 406 kts 13°
2026-04-15 09:55 46.62610 5.75095 37199 ft 407 kts 13°
2026-04-15 09:56 46.68053 5.77191 37199 ft 408 kts 13°
2026-04-15 09:57 46.76309 5.80379 37196 ft 409 kts 13°
2026-04-15 09:57 46.81821 5.82513 37200 ft 409 kts 13°
2026-04-15 09:58 46.87307 5.84642 37202 ft 410 kts 13°
2026-04-15 09:58 46.92830 5.86789 37209 ft 411 kts 13°
2026-04-15 09:59 46.98358 5.88943 37212 ft 411 kts 13°
2026-04-15 09:59 47.03881 5.91100 37221 ft 411 kts 13°
2026-04-15 10:00 47.09422 5.93268 37203 ft 411 kts 13°
2026-04-15 10:00 47.14920 5.95424 37211 ft 411 kts 13°
2026-04-15 10:01 47.20452 5.97598 37216 ft 411 kts 13°
2026-04-15 10:01 47.25988 5.99779 37198 ft 412 kts 13°
2026-04-15 10:02 47.31521 6.01962 37213 ft 411 kts 13°
2026-04-15 10:02 47.37049 6.04192 37200 ft 412 kts 14°
2026-04-15 10:03 47.42542 6.06658 37214 ft 412 kts 15°
2026-04-15 10:03 47.48028 6.09174 37222 ft 412 kts 15°
2026-04-15 10:04 47.53487 6.11662 37213 ft 413 kts 15°
2026-04-15 10:04 47.58983 6.14156 37231 ft 413 kts 15°
2026-04-15 10:05 47.64476 6.16649 37226 ft 413 kts 14°
2026-04-15 10:05 47.69979 6.19150 37228 ft 413 kts 14°
2026-04-15 10:06 47.75442 6.21639 37236 ft 413 kts 14°
2026-04-15 10:06 47.80947 6.24152 37236 ft 414 kts 15°
2026-04-15 10:07 47.86451 6.26671 37219 ft 414 kts 14°
2026-04-15 10:07 47.91964 6.29200 37202 ft 414 kts 14°
2026-04-15 10:08 47.97475 6.31733 37213 ft 414 kts 14°
2026-04-15 10:08 48.02980 6.34270 37221 ft 414 kts 14°
2026-04-15 10:09 48.08500 6.36818 37218 ft 415 kts 14°
2026-04-15 10:09 48.13973 6.39351 37221 ft 415 kts 14°
2026-04-15 10:10 48.19509 6.41919 37225 ft 416 kts 14°
2026-04-15 10:10 48.25041 6.44488 37227 ft 415 kts 15°
2026-04-15 10:11 48.30564 6.47064 37222 ft 415 kts 15°
2026-04-15 10:11 48.36042 6.49623 37217 ft 414 kts 15°
2026-04-15 10:12 48.41534 6.52193 37220 ft 413 kts 15°
2026-04-15 10:12 48.47009 6.54762 37220 ft 411 kts 14°
2026-04-15 10:13 48.52476 6.57332 37219 ft 411 kts 14°
2026-04-15 10:13 48.57010 6.59468 37218 ft 410 kts 15°
2026-04-15 10:14 48.62458 6.62040 37221 ft 410 kts 15°
2026-04-15 10:14 48.67908 6.64619 37227 ft 410 kts 15°
2026-04-15 10:15 48.73324 6.67187 37233 ft 410 kts 15°
2026-04-15 10:15 48.78783 6.69782 37232 ft 411 kts 15°
2026-04-15 10:16 48.84252 6.72387 37227 ft 412 kts 15°
2026-04-15 10:16 48.89726 6.75002 37238 ft 412 kts 14°
2026-04-15 10:17 48.95173 6.77608 37231 ft 413 kts 15°
2026-04-15 10:17 49.00669 6.80245 37227 ft 414 kts 15°
2026-04-15 10:18 49.06168 6.82890 37231 ft 414 kts 15°
2026-04-15 10:18 49.11679 6.85546 37242 ft 415 kts 14°
2026-04-15 10:19 49.17193 6.88210 37238 ft 416 kts 14°
2026-04-15 10:19 49.22674 6.90865 37219 ft 416 kts 15°
2026-04-15 10:20 49.28196 6.93561 37214 ft 416 kts 15°
2026-04-15 10:20 49.33801 6.95582 37224 ft 412 kts
2026-04-15 10:21 49.39480 6.97011 37213 ft 412 kts
2026-04-15 10:21 49.45109 6.98425 37209 ft 413 kts
2026-04-15 10:22 49.50774 6.99903 37218 ft 412 kts
2026-04-15 10:22 49.56438 7.01410 37227 ft 412 kts
2026-04-15 10:23 49.62061 7.02916 37218 ft 412 kts
2026-04-15 10:23 49.67719 7.04436 37221 ft 412 kts
2026-04-15 10:24 49.73376 7.05959 37222 ft 412 kts
2026-04-15 10:24 49.79034 7.07486 37216 ft 413 kts
2026-04-15 10:25 49.84660 7.09007 37223 ft 413 kts
2026-04-15 10:25 49.90328 7.10543 37231 ft 413 kts
2026-04-15 10:26 49.95991 7.12082 37239 ft 413 kts
2026-04-15 10:26 50.01660 7.13625 37253 ft 413 kts
2026-04-15 10:27 50.07325 7.15172 37236 ft 413 kts
2026-04-15 10:27 50.12957 7.16713 37246 ft 413 kts
2026-04-15 10:28 50.18639 7.18272 37238 ft 414 kts
2026-04-15 10:28 50.24312 7.19832 37244 ft 414 kts
2026-04-15 10:29 50.29960 7.21389 37241 ft 414 kts
2026-04-15 10:29 50.35657 7.22962 37230 ft 415 kts
2026-04-15 10:30 50.41340 7.24537 37237 ft 414 kts
2026-04-15 10:30 50.46995 7.26107 37240 ft 415 kts
2026-04-15 10:31 50.52676 7.27688 37240 ft 415 kts
2026-04-15 10:31 50.58359 7.29274 37246 ft 415 kts
2026-04-15 10:32 50.64054 7.30867 37243 ft 415 kts
2026-04-15 10:32 50.69738 7.32460 37246 ft 415 kts
2026-04-15 10:33 50.75300 7.34930 37246 ft 421 kts 20°
2026-04-15 10:33 50.80388 7.39669 37246 ft 426 kts 28°
2026-04-15 10:34 50.85340 7.44873 37237 ft 427 kts 29°
2026-04-15 10:34 50.90290 7.50068 37234 ft 427 kts 28°
2026-04-15 10:35 50.95254 7.55244 37235 ft 427 kts 28°
2026-04-15 10:35 51.00174 7.60367 37239 ft 426 kts 28°
2026-04-15 10:36 51.05139 7.65547 37236 ft 425 kts 28°
2026-04-15 10:36 51.10073 7.70707 37220 ft 424 kts 28°
2026-04-15 10:37 51.14993 7.75865 37238 ft 423 kts 28°
2026-04-15 10:37 51.19878 7.81000 37236 ft 423 kts 28°
2026-04-15 10:38 51.24785 7.86172 37234 ft 423 kts 28°
2026-04-15 10:38 51.29716 7.91382 37225 ft 424 kts 28°
2026-04-15 10:39 51.34650 7.96609 37238 ft 425 kts 28°
2026-04-15 10:39 51.39571 8.01837 37231 ft 427 kts 28°
2026-04-15 10:40 51.44531 8.07120 37221 ft 428 kts 28°
2026-04-15 10:40 51.49501 8.12428 37230 ft 429 kts 28°
2026-04-15 10:41 51.54463 8.17742 37239 ft 430 kts 28°
2026-04-15 10:41 51.59426 8.23071 37250 ft 430 kts 28°
2026-04-15 10:42 51.64400 8.28427 37228 ft 429 kts 28°
2026-04-15 10:42 51.69359 8.33782 37217 ft 427 kts 28°
2026-04-15 10:43 51.74283 8.39114 37222 ft 424 kts 28°
2026-04-15 10:43 51.79146 8.44391 37230 ft 422 kts 28°
2026-04-15 10:44 51.84016 8.49690 37232 ft 420 kts 28°
2026-04-15 10:44 51.88835 8.54947 37233 ft 420 kts 28°
2026-04-15 10:45 51.93688 8.60254 37233 ft 420 kts 28°
2026-04-15 10:45 51.98536 8.65570 37253 ft 421 kts 28°
2026-04-15 10:46 52.03402 8.70919 37243 ft 423 kts 28°
2026-04-15 10:46 52.08255 8.76270 37246 ft 424 kts 28°
2026-04-15 10:47 52.13152 8.81685 37237 ft 426 kts 28°
2026-04-15 10:47 52.18081 8.87150 37238 ft 427 kts 28°
2026-04-15 10:48 52.22976 8.92593 37245 ft 429 kts 28°
2026-04-15 10:48 52.27903 8.98084 37237 ft 429 kts 28°
2026-04-15 10:49 52.32824 9.03587 37234 ft 428 kts 28°
2026-04-15 10:49 52.37706 9.09060 37239 ft 426 kts 28°
2026-04-15 10:50 52.42596 9.14556 37257 ft 425 kts 28°
2026-04-15 10:50 52.47447 9.20024 37244 ft 424 kts 28°
2026-04-15 10:51 52.52312 9.25521 37243 ft 423 kts 28°
2026-04-15 10:51 52.57152 9.31006 37245 ft 422 kts 28°
2026-04-15 10:52 52.61964 9.36472 37243 ft 422 kts 28°
2026-04-15 10:52 52.66805 9.41986 37249 ft 422 kts 28°
2026-04-15 10:53 52.71650 9.47522 37246 ft 423 kts 28°
2026-04-15 10:53 52.76475 9.53051 37249 ft 425 kts 28°
2026-04-15 10:54 52.81345 9.58648 37252 ft 426 kts 28°
2026-04-15 10:54 52.86213 9.64258 37272 ft 427 kts 28°
2026-04-15 10:55 52.91093 9.69897 37259 ft 428 kts 28°
2026-04-15 10:55 52.95992 9.75574 37255 ft 429 kts 28°
2026-04-15 10:56 53.00894 9.81273 37258 ft 430 kts 28°
2026-04-15 10:56 53.05791 9.86980 37258 ft 430 kts 28°
2026-04-15 10:57 53.10697 9.92714 37253 ft 431 kts 28°
2026-04-15 10:57 53.18032 10.01319 37248 ft 430 kts 28°
2026-04-15 10:58 53.22925 10.07079 37249 ft 430 kts 28°
2026-04-15 10:58 53.27814 10.12852 37243 ft 429 kts 28°
2026-04-15 10:59 53.32688 10.18622 37253 ft 429 kts 28°
2026-04-15 10:59 53.37525 10.24364 37246 ft 428 kts 28°
2026-04-15 11:00 53.41570 10.29180 37244 ft 428 kts 28°
2026-04-15 11:00 53.46422 10.34970 37254 ft 428 kts 28°
2026-04-15 11:01 53.51271 10.40772 37241 ft 428 kts 28°
2026-04-15 11:01 53.56135 10.46610 37250 ft 429 kts 28°
2026-04-15 11:02 53.60960 10.52419 37250 ft 429 kts 28°
2026-04-15 11:02 53.65819 10.58285 37241 ft 429 kts 28°
2026-04-15 11:03 53.70671 10.64160 37239 ft 429 kts 29°
2026-04-15 11:03 53.75531 10.70062 37240 ft 430 kts 29°
2026-04-15 11:04 53.77968 10.73025 36991 ft 434 kts 28°
2026-04-15 11:04 53.80384 10.75969 36683 ft 430 kts 28°
2026-04-15 11:04 53.82791 10.78914 36273 ft 425 kts 28°
2026-04-15 11:04 53.85171 10.81829 35900 ft 420 kts 28°
2026-04-15 11:05 53.87534 10.84725 35496 ft 417 kts 28°
2026-04-15 11:05 53.89877 10.87598 35119 ft 413 kts 28°
2026-04-15 11:05 53.92198 10.90447 34738 ft 410 kts 27°
2026-04-15 11:05 53.94507 10.93285 34358 ft 407 kts 27°
2026-04-15 11:06 53.96789 10.96094 33936 ft 404 kts 27°
2026-04-15 11:06 53.99056 10.98886 33522 ft 401 kts 27°
2026-04-15 11:06 54.01305 11.01661 33147 ft 398 kts 27°
2026-04-15 11:06 54.03539 11.04422 32757 ft 395 kts 27°
2026-04-15 11:07 54.05750 11.07157 32381 ft 391 kts 27°
2026-04-15 11:07 54.07945 11.09750 32060 ft 385 kts 26°
2026-04-15 11:07 54.10173 11.12253 31700 ft 382 kts 25°
2026-04-15 11:07 54.12391 11.14707 31344 ft 379 kts 25°
2026-04-15 11:08 54.14601 11.17150 31025 ft 377 kts 25°
2026-04-15 11:08 54.16786 11.19580 30673 ft 374 kts 25°
2026-04-15 11:08 54.18960 11.22009 30308 ft 373 kts 25°
2026-04-15 11:08 54.21123 11.24438 29890 ft 371 kts 25°
2026-04-15 11:09 54.23266 11.26856 29533 ft 368 kts 25°
2026-04-15 11:09 54.25397 11.29268 29126 ft 365 kts 25°
2026-04-15 11:09 54.27506 11.31659 28763 ft 362 kts 25°
2026-04-15 11:09 54.29598 11.34036 28401 ft 359 kts 25°
2026-04-15 11:10 54.31668 11.36391 28043 ft 356 kts 25°
2026-04-15 11:10 54.33726 11.38735 27693 ft 353 kts 25°
2026-04-15 11:10 54.35766 11.41061 27348 ft 351 kts 25°
2026-04-15 11:10 54.37794 11.43376 27003 ft 348 kts 25°
2026-04-15 11:11 54.39779 11.45644 26669 ft 347 kts 25°
2026-04-15 11:11 54.41793 11.47946 26333 ft 346 kts 25°
2026-04-15 11:11 54.43800 11.50243 25997 ft 348 kts 25°
2026-04-15 11:11 54.45839 11.52571 25704 ft 357 kts 25°
2026-04-15 11:12 54.47936 11.54967 25303 ft 362 kts 25°
2026-04-15 11:12 54.50029 11.57374 24940 ft 360 kts 25°
2026-04-15 11:12 54.52081 11.59742 24590 ft 359 kts 25°
2026-04-15 11:12 54.54149 11.62133 24226 ft 357 kts 25°
2026-04-15 11:13 54.56211 11.64517 23872 ft 356 kts 25°
2026-04-15 11:13 54.58260 11.66888 23462 ft 354 kts 25°
2026-04-15 11:13 54.60301 11.69253 23086 ft 352 kts 25°
2026-04-15 11:13 54.62332 11.71608 22724 ft 349 kts 25°
2026-04-15 11:14 54.64339 11.73938 22375 ft 346 kts 25°
2026-04-15 11:14 54.66330 11.76251 22039 ft 343 kts 25°
2026-04-15 11:14 54.68280 11.78520 21705 ft 341 kts 25°
2026-04-15 11:14 54.70239 11.80800 21416 ft 338 kts 25°
2026-04-15 11:15 54.72185 11.83068 21064 ft 336 kts 25°
2026-04-15 11:15 54.74114 11.85319 20729 ft 334 kts 25°
2026-04-15 11:15 54.76038 11.87566 20404 ft 331 kts 25°
2026-04-15 11:15 54.77943 11.89794 20072 ft 329 kts 25°
2026-04-15 11:16 54.79834 11.92007 19747 ft 327 kts 25°
2026-04-15 11:16 54.81717 11.94214 19426 ft 326 kts 25°
2026-04-15 11:16 54.83590 11.96412 19103 ft 324 kts 25°
2026-04-15 11:16 54.85456 11.98603 18787 ft 323 kts 26°
2026-04-15 11:17 54.87310 12.00783 18452 ft 321 kts 26°
2026-04-15 11:17 54.89154 12.02955 18092 ft 320 kts 26°
2026-04-15 11:17 54.90988 12.05117 17765 ft 318 kts 25°
2026-04-15 11:17 54.92814 12.07274 17478 ft 316 kts 24°
2026-04-15 11:18 54.94627 12.09418 17121 ft 315 kts 24°
2026-04-15 11:18 54.96454 12.11572 16585 ft 320 kts 25°
2026-04-15 11:18 54.98271 12.13720 16243 ft 319 kts 25°
2026-04-15 11:18 55.00098 12.15887 15898 ft 317 kts 25°
2026-04-15 11:19 55.01918 12.18050 15573 ft 315 kts 25°
2026-04-15 11:19 55.03693 12.20161 15258 ft 314 kts 25°
2026-04-15 11:19 55.05490 12.22298 14944 ft 312 kts 25°
2026-04-15 11:19 55.07281 12.24432 14631 ft 311 kts 25°
2026-04-15 11:20 55.09066 12.26560 14318 ft 309 kts 25°
2026-04-15 11:20 55.10841 12.28678 14001 ft 308 kts 25°
2026-04-15 11:20 55.12608 12.30788 13659 ft 307 kts 26°
2026-04-15 11:20 55.14364 12.32889 13335 ft 305 kts 26°
2026-04-15 11:21 55.16107 12.34977 13050 ft 303 kts 26°
2026-04-15 11:21 55.17822 12.37033 12738 ft 301 kts 26°
2026-04-15 11:21 55.19534 12.39087 12424 ft 299 kts 26°
2026-04-15 11:21 55.21258 12.41157 12128 ft 297 kts 27°
2026-04-15 11:22 55.22959 12.43202 11829 ft 295 kts 27°
2026-04-15 11:22 55.24645 12.45231 11545 ft 293 kts 27°
2026-04-15 11:22 55.26322 12.47251 11247 ft 291 kts 28°
2026-04-15 11:22 55.27983 12.49255 10961 ft 289 kts 28°
2026-04-15 11:23 55.29638 12.51253 10675 ft 288 kts 28°
2026-04-15 11:23 55.31263 12.53216 10393 ft 286 kts 29°
2026-04-15 11:23 55.32894 12.55190 10183 ft 282 kts 29°
2026-04-15 11:23 55.34582 12.57238 10025 ft 274 kts 29°
2026-04-15 11:24 55.36147 12.59137 9760 ft 272 kts 29°
2026-04-15 11:24 55.37690 12.61010 9513 ft 269 kts 29°
2026-04-15 11:24 55.39227 12.62876 9234 ft 267 kts 29°
2026-04-15 11:24 55.40756 12.64733 8973 ft 265 kts 29°
2026-04-15 11:25 55.42269 12.66575 8714 ft 264 kts 30°
2026-04-15 11:25 55.43773 12.68406 8456 ft 262 kts 30°
2026-04-15 11:25 55.45269 12.70229 8194 ft 260 kts 30°
2026-04-15 11:25 55.46738 12.72022 7947 ft 259 kts 30°
2026-04-15 11:26 55.48215 12.73826 7693 ft 258 kts 30°
2026-04-15 11:26 55.49689 12.75628 7433 ft 256 kts 30°
2026-04-15 11:26 55.51149 12.77415 7189 ft 255 kts 30°
2026-04-15 11:26 55.52606 12.79199 6948 ft 254 kts 31°
2026-04-15 11:27 55.54060 12.80982 6686 ft 253 kts 31°
2026-04-15 11:27 55.55505 12.82755 6403 ft 253 kts 31°
2026-04-15 11:27 55.56947 12.84527 6149 ft 251 kts 31°
2026-04-15 11:27 55.58381 12.86290 5894 ft 250 kts 31°
2026-04-15 11:28 55.59805 12.88042 5641 ft 249 kts 31°
2026-04-15 11:28 55.61223 12.89789 5405 ft 247 kts 31°
2026-04-15 11:28 55.62635 12.91531 5168 ft 246 kts 31°
2026-04-15 11:28 55.64036 12.93260 4903 ft 245 kts 31°
2026-04-15 11:29 55.65527 12.94641 4670 ft 238 kts 14°
2026-04-15 11:29 55.67057 12.95572 4612 ft 228 kts 15°
2026-04-15 11:29 55.68514 12.96473 4496 ft 221 kts 12°
2026-04-15 11:29 55.69994 12.96637 4232 ft 211 kts 340°
2026-04-15 11:30 55.71203 12.95320 3952 ft 204 kts 310°
2026-04-15 11:30 55.72079 12.93406 3784 ft 197 kts 306°
2026-04-15 11:30 55.72906 12.91470 3447 ft 197 kts 305°
2026-04-15 11:30 55.73499 12.89347 3145 ft 190 kts 277°
2026-04-15 11:31 55.73342 12.87105 3039 ft 178 kts 256°
2026-04-15 11:31 55.73005 12.84985 2959 ft 178 kts 255°
2026-04-15 11:31 55.72636 12.82899 2781 ft 179 kts 246°
2026-04-15 11:31 55.71818 12.81271 2549 ft 175 kts 223°
2026-04-15 11:32 55.70939 12.79829 2297 ft 171 kts 225°
2026-04-15 11:32 55.70063 12.78420 2054 ft 169 kts 224°
2026-04-15 11:32 55.69191 12.77061 1820 ft 164 kts 224°
2026-04-15 11:32 55.68349 12.75756 1599 ft 157 kts 223°
2026-04-15 11:33 55.67548 12.74517 1398 ft 151 kts 222°
2026-04-15 11:33 55.66765 12.73305 1189 ft 146 kts 223°
2026-04-15 11:33 55.66014 12.72142 975 ft 143 kts 223°
2026-04-15 11:33 55.65255 12.70963 768 ft 149 kts 221°
2026-04-15 11:34 55.64455 12.69725 570 ft 155 kts 218°
2026-04-15 11:34 55.63646 12.68471 360 ft 153 kts 219°